Regional Weather Roundup
Issued by NWS

Home | Current Version | Previous Version | Graphics & Text | Print | Product List | Glossary On
Versions: 1 2 3 4 5 6 7 8 9 10 11 12 13 14 15 16 17 18 19 20 21 22 23 24 25 26 27 28 29 30 31 32 33 34 35 36 37 38 39 40 41 42 43 44 45 46 47 48 49 50
879
ASUS43 KMPX 292210
RWRMN
WEATHER ROUNDUP FOR MINNESOTA
NATIONAL WEATHER SERVICE TWIN CITIES/CHANHASSEN MN
500 PM CDT FRI JUL 29 2016


NOTE: "FAIR" INDICATES FEW OR NO CLOUDS BELOW 12,000 FEET WITH NO
SIGNIFICANT WEATHER AND/OR OBSTRUCTIONS TO VISIBILITY. N/A MEANS
CURRENT SKY AND/OR WEATHER CONDITIONS ARE NOT AVAILABLE.

MNZ060>063-068>070-292300-
   Twin Cities Metro

CITY           SKY/WX    TMP DP  RH WIND       PRES   REMARKS
TWIN CITIES    MOSUNNY   78  50  37 N12G17    30.03S
ST PAUL        SUNNY     78  53  41 N10       30.03S
CRYSTAL        SUNNY     77  48  35 N7        30.02F
BLAINE         MOSUNNY   79  52  38 N8        30.04S
LAKEVILLE      SUNNY     75  54  46 NE8       30.03S
EDEN PRAIRIE   SUNNY     79  50  36 N8        30.02S
LAKEVILLE      SUNNY     75  54  46 NE8       30.03S
SOUTH ST PAUL  SUNNY     77  48  35 N7        30.02S
LAKE ELMO      FAIR      77  54  44 CALM      30.04S
$$
MNZ001>005-007-008-013>017-022>024-027-028-292300-
   Northwest Minnesota

CITY           SKY/WX    TMP DP  RH WIND       PRES   REMARKS
BEMIDJI        MOSUNNY   77  57  49 E7        30.03F
HALLOCK        SUNNY     79  54  41 S5        30.01F
ROSEAU         MOSUNNY   79  61  53 CALM      30.02F
WARROAD        MOSUNNY   77  63  61 E8        30.03F
THIEF RVR FALL MOSUNNY   77  52  41 SW3       30.04F
CROOKSTON      CLOUDY    79  55  44 W5        30.03S
FOSSTON        SUNNY     79  54  41 CALM      30.04F
DETROIT LAKES  MOSUNNY   75  57  53 N7        30.06S
MOORHEAD       PTSUNNY   79  61  53 CALM      30.03S
PARK RAPIDS    PTSUNNY   79  57  46 S7        30.04F
MAHNOMEN       FAIR      77  52  42 NW3       30.04S
$$
MNZ006-009>011-018-025>026-292300-
   North Central Minnesota

CITY           SKY/WX    TMP DP  RH WIND       PRES   REMARKS
BAUDETTE       SUNNY     76  56  49 E5        30.02F
FLAG ISLAND    SUNNY     75  52  43 SE7       30.02F
INTL FALLS     PTSUNNY   76  56  49 CALM      30.04F
WASKISH        SUNNY     79  59  50 W6        30.04S
BIG FORK       SUNNY     79  55  44 S5        30.05F
LONGVILLE      SUNNY     79  55  44 CALM      30.05F
GRAND RAPIDS   SUNNY     76  56  49 VRB5      30.08F
CRANE LAKE     SUNNY     75  48  38 W1        30.07F
ORR            PTSUNNY   77  50  38 CALM      30.04F
COOK           SUNNY     75  55  50 NE3       30.07S
WALKER         MOCLDY    74  58  56 S6        30.05S
$$
MNZ012-019>021-037-292300-
   Northeast Minnesota

CITY           SKY/WX    TMP DP  RH WIND       PRES   REMARKS
DULUTH         MOSUNNY   73  52  47 VRB6      30.08F
ELY            PTSUNNY   77  46  33 CALM      30.07F
HIBBING        PTSUNNY   75  49  39 CALM      30.07F
EVELETH        SUNNY     73  53  48 CALM      30.09S
DULUTH HARBOR  SUNNY     72  61  68 E8        30.08S
TWO HARBORS    SUNNY     77  55  47 SE7       30.07S
SILVER BAY     SUNNY     73  48  40 CALM      30.07F
GRAND MARAIS     N/A     67  55  65 SW3       30.08F
G MARAIS ARPRT SUNNY     70  45  40 S6        30.12F
$$
MNZ029>031-032-039>041-046>048-054>057-064-292300-
   West Central Minnesota

CITY           SKY/WX    TMP DP  RH WIND       PRES   REMARKS
FERGUS FALLS   CLOUDY    66  66 100 SE7       30.06F
WHEATON        PTSUNNY   81  64  57 S6        30.05F
MORRIS         MOSUNNY   79  57  47 SW6       30.04F
ALEXANDRIA     PTSUNNY   75  54  47 SW5       30.07F
ELBOW LAKE     CLOUDY    75  62  62 SW7       30.05F
GLENWOOD       MOSUNNY   79  55  44 CALM      30.07S
APPLETON       MOSUNNY   79  54  41 CALM      30.04F
BENSON         SUNNY     81  52  36 CALM      30.05S
ORTONVILLE     MOSUNNY   79  57  47 S3        30.05S
MADISON        MOSUNNY   79  52  38 CALM      30.05F
WILLMAR        FAIR      77  57  50 E3        30.06F
$$
MNZ033>034-036-042>043-049>051-058-059-292300-
   Central Minnesota

CITY           SKY/WX    TMP DP  RH WIND       PRES   REMARKS
ST CLOUD       SUNNY     77  55  46 VRB6      30.04F
SAUK CENTRE    FAIR      75  55  49 NE3       30.06F
PAYNESVILLE    MOSUNNY   75  53  44 CALM      30.06F
AITKIN         SUNNY     79  48  34 CALM      30.05F
PINE RIVER     PTSUNNY   73  59  60 SE5       30.09S
BRAINERD       SUNNY     77  53  43 VRB5      30.06F
STAPLES        PTSUNNY   75  54  46 CALM      30.05F
LONG PRAIRIE   FAIR      73  54  49 CALM      30.07S
LITTLE FALLS   MOSUNNY   73  52  46 NE3       30.06S
LITCHFIELD     SUNNY     77  55  47 NE8       30.05F
BUFFALO        SUNNY     77  50  38 N10G16    30.05F
MAPLE LAKE     SUNNY     77  57  49 NE9       30.06S
HUTCHINSON     MOSUNNY   78  56  47 NE12      30.05F
$$
MNZ037-044-045-052-053-292300-
   East Central Minnesota

CITY           SKY/WX    TMP DP  RH WIND       PRES   REMARKS
PRINCETON      SUNNY     79  54  41 N8        30.05F
MORA           SUNNY     75  52  43 E5        30.06F
CAMBRIDGE      SUNNY     79  57  47 NE7       30.04S
RUSH CITY      MOSUNNY   76  55  49 N6        30.05F
MOOSE LAKE     SUNNY     73  46  38 E3        30.05F
HINCKLEY       FAIR      75  54  46 NE5       30.05F
CLOQUET        SUNNY     73  43  33 E5        30.08S
MCGREGOR       MOSUNNY   77  52  41 E7        30.06F
$$
MNZ071>073-080-081-089-090-097-098-292300-
   Southwest Minnesota

CITY           SKY/WX    TMP DP  RH WIND       PRES   REMARKS
MONTEVIDEO     CLOUDY    82  57  42 CALM      30.07F
GRANITE FALLS  CLOUDY    78  58  50 N3        30.06F
CANBY          SUNNY     79  55  43 NE3       30.06F
MARSHALL       CLOUDY    77  57  50 E10       30.05F
REDWOOD FALLS  MOSUNNY   79  55  43 NE6       30.04F
OLIVIA         SUNNY     77  54  44 CALM      30.04F
PIPESTONE      SUNNY     79  52  38 NE8       30.06F
WINDOM         SUNNY     75  54  46 N9        30.05S
WORTHINGTON    MOSUNNY   75  57  53 NE9       30.06F
JACKSON        MOSUNNY   75  54  46 N9        30.06S
TRACY          CLOUDY    77  59  53 NE7       30.06F
SLAYTON        CLOUDY    76  57  50 NE9       30.07F
$$
MNZ065>067-074>077-082>085-091>093-292300-
   South Central Minnesota

CITY           SKY/WX    TMP DP  RH WIND       PRES   REMARKS
MANKATO        SUNNY     75  54  46 N9        30.03S
NEW ULM        SUNNY     77  54  44 NE12G17   30.04R
ST JAMES       SUNNY     72  52  49 N8        30.05R
FAIRMONT       CLOUDY    75  59  57 N9        30.03S
GLENCOE        SUNNY     77  58  51 N6        30.04S
FARIBAULT      SUNNY     75  55  50 CALM      30.04R
OWATONNA       SUNNY     75  55  50 NE7       30.03S
WASECA         MOSUNNY   73  59  60 N6        30.04S
ALBERT LEA     PTSUNNY   73  61  64 N10       30.03R
$$
MNZ078>079-086>088-094>096-292300-
   Southeast Minnesota

CITY           SKY/WX    TMP DP  RH WIND       PRES   REMARKS
ROCHESTER      MOSUNNY   77  62  59 N13       30.02F
RED WING       SUNNY     79  48  34 NE6       30.00F
STANTON        SUNNY     77  50  38 N6        30.01F
DODGE CENTER   MOSUNNY   73  57  56 N7        30.03S
WINONA         CLOUDY    77  61  57 NE7       29.99S
AUSTIN         MOSUNNY   75  57  53 NE6       30.02R
PRESTON        CLOUDY    72  61  69 NE8       30.02S
$$
ABBREVIATIONS USED IN REMARKS
   TC - TEMPERATURES IN CELSIUS
  WCI - WIND CHILL INDEX
   HX - HEAT INDEX
  VSB - VISIBILITY
$$




USA.gov is the U.S. government's official web portal to all federal, state and local government web resources and services.